| time (UTC) | temp C | wind direction | speed KPH | gust KPH | rain 1hr cm | rain 24hr cm | rain mn cm | humidity % | barometer mb |
| 20260506190446 | 23 | 323 | 17.7 | 24.1 | 0.00 | 0.00 | 0.00 | 77 | |
| 20260506185942 | 24 | 283 | 8.0 | 20.9 | 0.00 | 0.00 | 0.00 | 75 | |
| 20260506185439 | 25 | 13 | 11.3 | 16.1 | 0.00 | 0.00 | 0.00 | 74 | |
| 20260506184937 | 26 | 327 | 8.0 | 11.3 | 0.00 | 0.00 | 0.00 | 74 | |
| 20260506184433 | 26 | 77 | 4.8 | 11.3 | 0.00 | 0.00 | 0.00 | 70 | |
| 20260506183931 | 26 | 66 | 0.0 | 3.2 | 0.00 | 0.00 | 0.00 | 72 | |
| 20260506183426 | 26 | 338 | 4.8 | 11.3 | 0.00 | 0.00 | 0.00 | 71 | |
| 20260506182923 | 25 | 57 | 3.2 | 8.0 | 0.00 | 0.00 | 0.00 | 71 | |
| 20260506182421 | 25 | 344 | 1.6 | 8.0 | 0.00 | 0.00 | 0.00 | 74 | |
| 20260506181918 | 25 | 69 | 3.2 | 11.3 | 0.00 | 0.00 | 0.00 | 72 | |
| 20260506181416 | 24 | 309 | 3.2 | 8.0 | 0.00 | 0.00 | 0.00 | 73 | |
| 20260506180912 | 24 | 36 | 4.8 | 8.0 | 0.00 | 0.00 | 0.00 | 74 | |
| 20260506180408 | 25 | 39 | 8.0 | 9.7 | 0.00 | 0.00 | 0.00 | 73 | |
| 20260506175905 | 24 | 27 | 8.0 | 11.3 | 0.00 | 0.00 | 0.00 | 75 | |
| 20260506175402 | 23 | 46 | 1.6 | 4.8 | 0.00 | 0.00 | 0.00 | 75 | |
| 20260506174859 | 23 | 87 | 4.8 | 12.9 | 0.00 | 0.00 | 0.00 | 76 | |
| 20260506174356 | 23 | 47 | 4.8 | 8.0 | 0.00 | 0.00 | 0.00 | 74 | |
| 20260506173854 | 23 | 32 | 3.2 | 8.0 | 0.00 | 0.00 | 0.00 | 73 | |
| 20260506173350 | 22 | 38 | 1.6 | 3.2 | 0.00 | 0.00 | 0.00 | 77 | |
| 20260506172848 | 21 | 9 | 3.2 | 9.7 | 0.00 | 0.00 | 0.00 | 78 | |
| 20260506172344 | 21 | 72 | 11.3 | 14.5 | 0.00 | 0.00 | 0.00 | 78 | |
| 20260506171842 | 21 | 30 | 6.4 | 11.3 | 0.00 | 0.00 | 0.00 | 79 | |
| 20260506171338 | 21 | 62 | 12.9 | 16.1 | 0.00 | 0.00 | 0.00 | 78 | |
| 20260506170836 | 21 | 66 | 4.8 | 16.1 | 0.00 | 0.00 | 0.00 | 80 | |
| 20260506170331 | 20 | 352 | 3.2 | 9.7 | 0.00 | 0.00 | 0.00 | 80 | |
| 20260506165826 | 20 | 47 | 8.0 | 11.3 | 0.00 | 0.00 | 0.00 | 79 | |
| 20260506165323 | 20 | 340 | 4.8 | 11.3 | 0.00 | 0.00 | 0.00 | 80 | |
| 20260506164819 | 20 | 33 | 8.0 | 16.1 | 0.00 | 0.00 | 0.00 | 79 | |
| 20260506164316 | 18 | 359 | 6.4 | 9.7 | 0.00 | 0.00 | 0.00 | 83 | |
| 20260506163813 | 18 | 29 | 11.3 | 12.9 | 0.00 | 0.00 | 0.00 | 82 | |
| 20260506163308 | 18 | 7 | 9.7 | 12.9 | 0.00 | 0.00 | 0.00 | 85 | |
| 20260506162804 | 18 | 348 | 11.3 | 16.1 | 0.00 | 0.00 | 0.00 | 85 | |
| 20260506162306 | 18 | 316 | 8.0 | 9.7 | 0.00 | 0.00 | 0.00 | 87 | |
| 20260506161759 | 18 | 341 | 14.5 | 27.4 | 0.00 | 0.00 | 0.00 | 87 | |
| 20260506161256 | 18 | 348 | 19.3 | 22.5 | 0.00 | 0.00 | 0.00 | 87 | |
| 20260506160754 | 18 | 359 | 17.7 | 24.1 | 0.00 | 0.00 | 0.00 | 86 | |
| 20260506160250 | 19 | 315 | 16.1 | 33.8 | 0.00 | 0.00 | 0.00 | 86 | |
| 20260506155749 | 20 | 328 | 27.4 | 32.2 | 0.00 | 0.00 | 0.00 | 85 | |
| 20260506155245 | 22 | 344 | 17.7 | 29.0 | 0.00 | 0.00 | 0.00 | 82 | |
| 20260506153358 | 25 | 60 | 1.6 | 4.8 | 0.00 | 0.00 | 0.00 | 85 | |
| 20260506152855 | 25 | 34 | 3.2 | 4.8 | 0.00 | 0.00 | 0.00 | 85 | |
| 20260506152352 | 25 | 76 | 3.2 | 3.2 | 0.00 | 0.00 | 0.00 | 85 | |
| 20260506151851 | 25 | 78 | 3.2 | 3.2 | 0.00 | 0.00 | 0.00 | 85 | |
| 20260506151347 | 25 | 74 | 0.0 | 3.2 | 0.00 | 0.00 | 0.00 | 85 | |
| 20260506150845 | 25 | 140 | 0.0 | 0.0 | 0.00 | 0.00 | 0.00 | 84 | |
| 20260506150341 | 25 | 119 | 4.8 | 4.8 | 0.00 | 0.00 | 0.00 | 84 | |
| 20260506145838 | 25 | 115 | 0.0 | 4.8 | 0.00 | 0.00 | 0.00 | 85 | |
| 20260506145334 | 25 | 139 | 3.2 | 11.3 | 0.00 | 0.00 | 0.00 | 85 | |
| 20260506144832 | 24 | 179 | 4.8 | 11.3 | 0.00 | 0.00 | 0.00 | 85 | |
| 20260506144328 | 24 | 165 | 3.2 | 8.0 | 0.00 | 0.00 | 0.00 | 86 | |
| 20260506143827 | 24 | 155 | 4.8 | 9.7 | 0.00 | 0.00 | 0.00 | 87 | |
| 20260506143323 | 23 | 202 | 3.2 | 8.0 | 0.00 | 0.00 | 0.00 | 88 | |
| 20260506142822 | 24 | 148 | 8.0 | 14.5 | 0.00 | 0.00 | 0.00 | 87 | |
| 20260506142319 | 24 | 138 | 4.8 | 12.9 | 0.00 | 0.00 | 0.00 | 86 | |
| 20260506141817 | 24 | 150 | 3.2 | 11.3 | 0.00 | 0.00 | 0.00 | 88 | |
| 20260506141315 | 23 | 178 | 6.4 | 9.7 | 0.00 | 0.00 | 0.00 | 89 | |
| 20260506140813 | 23 | 152 | 3.2 | 8.0 | 0.00 | 0.00 | 0.00 | 89 | |
| 20260506140309 | 23 | 150 | 3.2 | 3.2 | 0.00 | 0.00 | 0.00 | 90 | |
| 20260506135807 | 23 | 162 | 1.6 | 3.2 | 0.00 | 0.00 | 0.00 | 90 | |
| 20260506135305 | 23 | 58 | 0.0 | 1.6 | 0.00 | 0.00 | 0.00 | 91 | |
| 20260506134800 | 23 | 94 | 0.0 | 1.6 | 0.00 | 0.00 | 0.00 | 91 | |
| 20260506134256 | 23 | 121 | 6.4 | 11.3 | 0.00 | 0.00 | 0.00 | 91 | |
| 20260506133753 | 23 | 110 | 6.4 | 9.7 | 0.00 | 0.00 | 0.00 | 92 | |
| 20260506133250 | 23 | 151 | 4.8 | 4.8 | 0.00 | 0.00 | 0.00 | 92 | |
| 20260506132746 | 23 | 144 | 6.4 | 9.7 | 0.00 | 0.00 | 0.00 | 92 | |
| 20260506132244 | 23 | 113 | 4.8 | 8.0 | 0.00 | 0.00 | 0.00 | 91 | |
| 20260506131742 | 23 | 155 | 8.0 | 11.3 | 0.00 | 0.00 | 0.00 | 91 | |
| 20260506131237 | 23 | 159 | 4.8 | 8.0 | 0.00 | 0.00 | 0.00 | 92 | |
| 20260506130734 | 23 | 114 | 3.2 | 4.8 | 0.00 | 0.00 | 0.00 | 92 | |
| 20260506130231 | 23 | 123 | 4.8 | 4.8 | 0.00 | 0.00 | 0.00 | 92 | |
| 20260506125729 | 23 | 126 | 4.8 | 9.7 | 0.00 | 0.00 | 0.00 | 92 | |
| 20260506125227 | 23 | 115 | 4.8 | 8.0 | 0.00 | 0.00 | 0.00 | 93 | |
| 20260506124725 | 23 | 106 | 4.8 | 9.7 | 0.00 | 0.00 | 0.00 | 93 | |
| 20260506124223 | 23 | 109 | 3.2 | 8.0 | 0.00 | 0.00 | 0.00 | 93 | |
| 20260506123720 | 23 | 92 | 3.2 | 8.0 | 0.00 | 0.00 | 0.00 | 93 | |
| 20260506123219 | 23 | 137 | 3.2 | 4.8 | 0.00 | 0.00 | 0.00 | 92 | |
| 20260506122715 | 23 | 130 | 4.8 | 8.0 | 0.00 | 0.00 | 0.00 | 92 | |
| 20260506122212 | 23 | 134 | 0.0 | 0.0 | 0.00 | 0.00 | 0.00 | 92 | |
| 20260506121710 | 23 | 114 | 0.0 | 0.0 | 0.00 | 0.00 | 0.00 | 92 | |
| 20260506121206 | 23 | 111 | 0.0 | 0.0 | 0.00 | 0.00 | 0.00 | 92 | |
| 20260506120704 | 23 | 106 | 0.0 | 0.0 | 0.00 | 0.00 | 0.00 | 92 | |
| 20260506120201 | 23 | 88 | 0.0 | 0.0 | 0.00 | 0.00 | 0.00 | 92 | |
| 20260506115700 | 23 | 79 | 0.0 | 0.0 | 0.00 | 0.00 | 0.00 | 92 | |
| 20260506115158 | 23 | 86 | 0.0 | 0.0 | 0.00 | 0.00 | 0.00 | 92 | |
| 20260506114654 | 23 | 82 | 0.0 | 0.0 | 0.00 | 0.00 | 0.00 | 92 | |
| 20260506114152 | 23 | 78 | 0.0 | 0.0 | 0.00 | 0.00 | 0.00 | 91 | |
| 20260506113651 | 23 | 120 | 0.0 | 0.0 | 0.00 | 0.00 | 0.00 | 91 | |
| 20260506113148 | 23 | 123 | 0.0 | 0.0 | 0.00 | 0.00 | 0.00 | 91 | |
| 20260506112643 | 23 | 163 | 0.0 | 0.0 | 0.00 | 0.00 | 0.00 | 91 | |
| 20260506112142 | 23 | 170 | 0.0 | 0.0 | 0.00 | 0.00 | 0.00 | 91 | |
| 20260506111639 | 23 | 199 | 0.0 | 3.2 | 0.00 | 0.00 | 0.00 | 91 | |
| 20260506111137 | 23 | 183 | 1.6 | 1.6 | 0.00 | 0.00 | 0.00 | 91 | |
| 20260506110634 | 23 | 187 | 0.0 | 1.6 | 0.00 | 0.00 | 0.00 | 91 | |
| 20260506110131 | 23 | 178 | 1.6 | 3.2 | 0.00 | 0.00 | 0.00 | 91 | |
| 20260506105627 | 23 | 200 | 1.6 | 1.6 | 0.00 | 0.00 | 0.00 | 91 | |
| 20260506105125 | 23 | 185 | 3.2 | 3.2 | 0.00 | 0.00 | 0.00 | 91 | |
| 20260506104623 | 23 | 178 | 0.0 | 0.0 | 0.00 | 0.00 | 0.00 | 91 | |
| 20260506104120 | 23 | 187 | 1.6 | 3.2 | 0.00 | 0.00 | 0.00 | 91 | |
| 20260506103617 | 23 | 169 | 3.2 | 4.8 | 0.00 | 0.00 | 0.00 | 91 | |
| 20260506103114 | 23 | 197 | 8.0 | 11.3 | 0.00 | 0.00 | 0.00 | 91 | |
| 20260506102612 | 23 | 184 | 8.0 | 9.7 | 0.00 | 0.00 | 0.00 | 91 | |
| 20260506102109 | 23 | 221 | 11.3 | 12.9 | 0.00 | 0.00 | 0.00 | 91 | |
| 20260506101606 | 23 | 196 | 4.8 | 4.8 | 0.00 | 0.00 | 0.00 | 91 | |
| 20260506101102 | 23 | 183 | 11.3 | 12.9 | 0.00 | 0.00 | 0.00 | 91 | |
| 20260506100601 | 23 | 182 | 4.8 | 11.3 | 0.00 | 0.00 | 0.00 | 91 | |
| 20260506100059 | 23 | 179 | 8.0 | 14.5 | 0.00 | 0.00 | 0.00 | 91 | |
| 20260506095557 | 23 | 188 | 6.4 | 9.7 | 0.00 | 0.00 | 0.00 | 91 | |
| 20260506095054 | 23 | 174 | 6.4 | 9.7 | 0.00 | 0.00 | 0.00 | 92 | |
| 20260506094551 | 23 | 191 | 4.8 | 11.3 | 0.00 | 0.00 | 0.00 | 92 | |
| 20260506094049 | 23 | 189 | 3.2 | 4.8 | 0.00 | 0.00 | 0.00 | 92 | |
| 20260506093547 | 23 | 179 | 4.8 | 11.3 | 0.00 | 0.00 | 0.00 | 92 | |
| 20260506093044 | 23 | 188 | 4.8 | 9.7 | 0.00 | 0.00 | 0.00 | 93 | |
| 20260506092542 | 22 | 211 | 4.8 | 11.3 | 0.00 | 0.00 | 0.00 | 93 | |
| 20260506092038 | 22 | 204 | 8.0 | 12.9 | 0.00 | 0.00 | 0.00 | 93 | |
| 20260506091537 | 22 | 174 | 3.2 | 12.9 | 0.00 | 0.00 | 0.00 | 93 | |
| 20260506091034 | 22 | 225 | 11.3 | 14.5 | 0.00 | 0.00 | 0.00 | 93 | |
| 20260506090532 | 22 | 187 | 8.0 | 12.9 | 0.00 | 0.00 | 0.00 | 93 | |
| 20260506090028 | 23 | 176 | 11.3 | 14.5 | 0.00 | 0.00 | 0.00 | 92 | |
| 20260506085525 | 23 | 185 | 9.7 | 17.7 | 0.00 | 0.00 | 0.00 | 92 | |
| 20260506085021 | 23 | 220 | 11.3 | 22.5 | 0.00 | 0.00 | 0.00 | 91 | |
| 20260506084518 | 23 | 205 | 8.0 | 14.5 | 0.00 | 0.00 | 0.00 | 91 | |
| 20260506084014 | 23 | 195 | 4.8 | 12.9 | 0.00 | 0.00 | 0.00 | 91 | |
| 20260506083511 | 23 | 159 | 11.3 | 12.9 | 0.00 | 0.00 | 0.00 | 91 | |
| 20260506083009 | 23 | 176 | 8.0 | 16.1 | 0.00 | 0.00 | 0.00 | 91 | |
| 20260506082506 | 23 | 188 | 8.0 | 12.9 | 0.00 | 0.00 | 0.00 | 91 | |
| 20260506082001 | 23 | 166 | 12.9 | 22.5 | 0.00 | 0.00 | 0.00 | 91 | |
| 20260506081500 | 23 | 183 | 11.3 | 20.9 | 0.00 | 0.00 | 0.00 | 91 | |
| 20260506080957 | 23 | 169 | 11.3 | 17.7 | 0.00 | 0.00 | 0.00 | 91 | |
| 20260506080454 | 23 | 184 | 9.7 | 16.1 | 0.00 | 0.00 | 0.00 | 91 | |
| 20260506073437 | 23 | 172 | 8.0 | 16.1 | 0.00 | 0.00 | 0.00 | 89 | |
| 20260506072935 | 23 | 191 | 8.0 | 16.1 | 0.00 | 0.00 | 0.00 | 89 | |
| 20260506072432 | 23 | 181 | 12.9 | 17.7 | 0.00 | 0.00 | 0.00 | 89 | |
| 20260506071930 | 23 | 185 | 14.5 | 22.5 | 0.00 | 0.00 | 0.00 | 89 | |
| 20260506071427 | 23 | 188 | 12.9 | 25.7 | 0.00 | 0.00 | 0.00 | 89 | |
| 20260506070924 | 23 | 135 | 12.9 | 22.5 | 0.00 | 0.00 | 0.00 | 89 | |
| 20260506070421 | 23 | 177 | 12.9 | 16.1 | 0.00 | 0.00 | 0.00 | 88 | |
| 20260506062358 | 23 | 197 | 14.5 | 17.7 | 0.00 | 0.00 | 0.00 | 88 | |
| 20260506061854 | 23 | 181 | 14.5 | 17.7 | 0.00 | 0.00 | 0.00 | 88 | |
| 20260506061351 | 23 | 176 | 27.4 | 33.8 | 0.00 | 0.00 | 0.00 | 88 | |
| 20260506060849 | 23 | 193 | 9.7 | 17.7 | 0.00 | 0.00 | 0.00 | 88 | |
| 20260506060347 | 23 | 185 | 11.3 | 16.1 | 0.00 | 0.00 | 0.00 | 88 | |
| 20260506051318 | 23 | 191 | 8.0 | 22.5 | 0.00 | 0.00 | 0.00 | 89 | |
| 20260506050816 | 23 | 196 | 8.0 | 14.5 | 0.00 | 0.00 | 0.00 | 89 | |
| 20260506050314 | 23 | 166 | 8.0 | 12.9 | 0.00 | 0.00 | 0.00 | 89 | |
| 20260506044804 | 24 | 181 | 9.7 | 14.5 | 0.00 | 0.00 | 0.00 | 89 | |
| 20260506044301 | 24 | 186 | 1.6 | 11.3 | 0.00 | 0.00 | 0.00 | 89 | |
| 20260506043759 | 24 | 192 | 6.4 | 12.9 | 0.00 | 0.00 | 0.00 | 89 | |
| 20260506043256 | 24 | 148 | 11.3 | 16.1 | 0.00 | 0.00 | 0.00 | 88 | |
| 20260506042755 | 24 | 172 | 8.0 | 17.7 | 0.00 | 0.00 | 0.00 | 88 | |
| 20260506042253 | 23 | 165 | 11.3 | 16.1 | 0.00 | 0.00 | 0.00 | 89 | |
| 20260506041751 | 23 | 151 | 11.3 | 22.5 | 0.00 | 0.00 | 0.00 | 89 | |
| 20260506041248 | 23 | 135 | 8.0 | 16.1 | 0.00 | 0.00 | 0.00 | 89 | |
| 20260506040745 | 23 | 137 | 9.7 | 14.5 | 0.00 | 0.00 | 0.00 | 89 | |
| 20260506040242 | 23 | 130 | 6.4 | 16.1 | 0.00 | 0.00 | 0.00 | 89 | |
| 20260506035739 | 23 | 158 | 9.7 | 14.5 | 0.00 | 0.00 | 0.00 | 89 | |
| 20260506035236 | 23 | 163 | 8.0 | 11.3 | 0.00 | 0.00 | 0.00 | 89 | |
| 20260506034733 | 23 | 125 | 3.2 | 8.0 | 0.00 | 0.00 | 0.00 | 89 | |
| 20260506034230 | 23 | 165 | 4.8 | 11.3 | 0.00 | 0.00 | 0.00 | 88 | |
| 20260506033727 | 24 | 163 | 4.8 | 12.9 | 0.00 | 0.00 | 0.00 | 88 | |
| 20260506033224 | 24 | 146 | 4.8 | 12.9 | 0.00 | 0.00 | 0.00 | 88 | |
| 20260506032721 | 24 | 162 | 4.8 | 16.1 | 0.00 | 0.00 | 0.00 | 87 | |
| 20260506032218 | 24 | 189 | 9.7 | 12.9 | 0.00 | 0.00 | 0.00 | 87 | |
| 20260506031714 | 24 | 176 | 11.3 | 14.5 | 0.00 | 0.00 | 0.00 | 87 | |
| 20260506031212 | 24 | 184 | 8.0 | 11.3 | 0.00 | 0.00 | 0.00 | 86 | |
| 20260506030710 | 24 | 132 | 6.4 | 12.9 | 0.00 | 0.00 | 0.00 | 86 | |
| 20260506030207 | 24 | 171 | 16.1 | 20.9 | 0.00 | 0.00 | 0.00 | 86 | |
| 20260506025704 | 25 | 187 | 8.0 | 14.5 | 0.00 | 0.00 | 0.00 | 85 | |
| 20260506025200 | 25 | 170 | 4.8 | 14.5 | 0.00 | 0.00 | 0.00 | 85 | |
| 20260506024657 | 25 | 138 | 3.2 | 12.9 | 0.00 | 0.00 | 0.00 | 84 | |
| 20260506024154 | 25 | 205 | 8.0 | 14.5 | 0.00 | 0.00 | 0.00 | 83 | |
| 20260506023650 | 25 | 160 | 6.4 | 14.5 | 0.00 | 0.00 | 0.00 | 83 | |
| 20260506023147 | 25 | 190 | 12.9 | 16.1 | 0.00 | 0.00 | 0.00 | 82 | |
| 20260506022644 | 25 | 160 | 4.8 | 12.9 | 0.00 | 0.00 | 0.00 | 81 | |
| 20260506022142 | 25 | 149 | 8.0 | 11.3 | 0.00 | 0.00 | 0.00 | 81 | |
| 20260506021640 | 25 | 183 | 3.2 | 11.3 | 0.00 | 0.00 | 0.00 | 81 | |
| 20260506021136 | 25 | 133 | 4.8 | 16.1 | 0.00 | 0.00 | 0.00 | 80 | |
| 20260506020633 | 25 | 155 | 1.6 | 9.7 | 0.00 | 0.00 | 0.00 | 80 | |
| 20260506020131 | 25 | 164 | 4.8 | 11.3 | 0.00 | 0.00 | 0.00 | 80 | |
| 20260506015628 | 25 | 161 | 9.7 | 14.5 | 0.00 | 0.00 | 0.00 | 80 | |
| 20260506015125 | 26 | 130 | 9.7 | 17.7 | 0.00 | 0.00 | 0.00 | 80 | |
| 20260506014623 | 26 | 138 | 6.4 | 11.3 | 0.00 | 0.00 | 0.00 | 79 | |
| 20260506014118 | 26 | 134 | 4.8 | 8.0 | 0.00 | 0.00 | 0.00 | 79 | |
| 20260506013617 | 26 | 125 | 3.2 | 11.3 | 0.00 | 0.00 | 0.00 | 79 | |
| 20260506013113 | 26 | 145 | 8.0 | 11.3 | 0.00 | 0.00 | 0.00 | 79 | |
| 20260506012609 | 26 | 148 | 9.7 | 12.9 | 0.00 | 0.00 | 0.00 | 78 | |
| 20260506012106 | 26 | 133 | 4.8 | 11.3 | 0.00 | 0.00 | 0.00 | 78 | |
| 20260506011604 | 26 | 124 | 6.4 | 9.7 | 0.00 | 0.00 | 0.00 | 77 | |
| 20260506011059 | 26 | 141 | 4.8 | 9.7 | 0.00 | 0.00 | 0.00 | 77 | |
| 20260506010554 | 26 | 148 | 4.8 | 9.7 | 0.00 | 0.00 | 0.00 | 76 | |
| 20260506010050 | 27 | 161 | 3.2 | 11.3 | 0.00 | 0.00 | 0.00 | 76 | |
| 20260506005547 | 27 | 140 | 4.8 | 8.0 | 0.00 | 0.00 | 0.00 | 75 | |
| 20260506005043 | 27 | 157 | 3.2 | 4.8 | 0.00 | 0.00 | 0.00 | 75 | |
| 20260506004541 | 27 | 134 | 8.0 | 9.7 | 0.00 | 0.00 | 0.00 | 74 | |
| 20260506004037 | 27 | 161 | 3.2 | 3.2 | 0.00 | 0.00 | 0.00 | 74 | |
| 20260506003534 | 27 | 147 | 3.2 | 4.8 | 0.00 | 0.00 | 0.00 | 73 | |
| 20260506003030 | 27 | 140 | 3.2 | 8.0 | 0.00 | 0.00 | 0.00 | 73 | |
| 20260506002526 | 27 | 143 | 3.2 | 8.0 | 0.00 | 0.00 | 0.00 | 72 | |
| 20260506002022 | 27 | 163 | 6.4 | 9.7 | 0.00 | 0.00 | 0.00 | 71 | |
| 20260506001518 | 27 | 170 | 3.2 | 8.0 | 0.00 | 0.00 | 0.00 | 71 | |
| 20260506001016 | 27 | 162 | 4.8 | 9.7 | 0.00 | 0.00 | 0.00 | 71 | |
| 20260506000513 | 27 | 202 | 11.3 | 12.9 | 0.00 | 0.00 | 0.00 | 71 | |
| 20260506000010 | 27 | 194 | 4.8 | 20.9 | 0.00 | 0.00 | 0.00 | 70 | |
| 20260505235508 | 27 | 188 | 11.3 | 14.5 | 0.00 | 0.00 | 0.00 | 70 | |
| 20260505235004 | 28 | 177 | 11.3 | 17.7 | 0.00 | 0.00 | 0.00 | 69 | |
| 20260505234502 | 28 | 182 | 11.3 | 16.1 | 0.00 | 0.00 | 0.00 | 69 | |
| 20260505233958 | 28 | 217 | 8.0 | 11.3 | 0.00 | 0.00 | 0.00 | 70 | |
| 20260505233456 | 28 | 211 | 6.4 | 12.9 | 0.00 | 0.00 | 0.00 | 70 | |
| 20260505232953 | 28 | 188 | 17.7 | 20.9 | 0.00 | 0.00 | 0.00 | 69 | |
| 20260505232451 | 28 | 187 | 11.3 | 17.7 | 0.00 | 0.00 | 0.00 | 69 | |
| 20260505231948 | 28 | 179 | 4.8 | 14.5 | 0.00 | 0.00 | 0.00 | 70 | |
| 20260505231445 | 27 | 170 | 8.0 | 16.1 | 0.00 | 0.00 | 0.00 | 70 | |
| 20260505230944 | 28 | 192 | 8.0 | 17.7 | 0.00 | 0.00 | 0.00 | 69 | |
| 20260505230441 | 28 | 183 | 9.7 | 16.1 | 0.00 | 0.00 | 0.00 | 69 | |
| 20260505225937 | 28 | 194 | 12.9 | 20.9 | 0.00 | 0.00 | 0.00 | 69 | |
| 20260505225434 | 28 | 146 | 9.7 | 16.1 | 0.00 | 0.00 | 0.00 | 70 | |
| 20260505224930 | 28 | 188 | 11.3 | 20.9 | 0.00 | 0.00 | 0.00 | 69 | |
| 20260505224427 | 28 | 157 | 6.4 | 11.3 | 0.00 | 0.00 | 0.00 | 69 | |
| 20260505223924 | 28 | 178 | 3.2 | 17.7 | 0.00 | 0.00 | 0.00 | 69 | |
| 20260505223421 | 28 | 174 | 11.3 | 20.9 | 0.00 | 0.00 | 0.00 | 68 | |
| 20260505222918 | 28 | 160 | 17.7 | 25.7 | 0.00 | 0.00 | 0.00 | 68 | |
| 20260505222414 | 28 | 213 | 9.7 | 16.1 | 0.00 | 0.00 | 0.00 | 69 | |
| 20260505221910 | 28 | 194 | 4.8 | 17.7 | 0.00 | 0.00 | 0.00 | 69 | |
| 20260505221408 | 28 | 223 | 9.7 | 16.1 | 0.00 | 0.00 | 0.00 | 68 | |
| 20260505220904 | 28 | 201 | 12.9 | 14.5 | 0.00 | 0.00 | 0.00 | 66 | |
| 20260505220401 | 28 | 175 | 8.0 | 16.1 | 0.00 | 0.00 | 0.00 | 68 | |
| 20260505215859 | 29 | 146 | 16.1 | 20.9 | 0.00 | 0.00 | 0.00 | 65 | |
| 20260505215357 | 29 | 170 | 3.2 | 11.3 | 0.00 | 0.00 | 0.00 | 66 | |
| 20260505214855 | 28 | 178 | 8.0 | 14.5 | 0.00 | 0.00 | 0.00 | 67 | |
| 20260505214352 | 28 | 167 | 6.4 | 24.1 | 0.00 | 0.00 | 0.00 | 67 | |
| 20260505213849 | 28 | 168 | 14.5 | 25.7 | 0.00 | 0.00 | 0.00 | 67 | |
| 20260505213347 | 28 | 162 | 14.5 | 25.7 | 0.00 | 0.00 | 0.00 | 66 | |
| 20260505212843 | 28 | 231 | 14.5 | 25.7 | 0.00 | 0.00 | 0.00 | 65 | |
| 20260505212340 | 28 | 183 | 12.9 | 17.7 | 0.00 | 0.00 | 0.00 | 65 | |
| 20260505211836 | 28 | 249 | 11.3 | 24.1 | 0.00 | 0.00 | 0.00 | 66 | |
| 20260505211334 | 28 | 205 | 6.4 | 14.5 | 0.00 | 0.00 | 0.00 | 66 | |
| 20260505210830 | 28 | 151 | 8.0 | 17.7 | 0.00 | 0.00 | 0.00 | 66 | |
| 20260505210327 | 29 | 142 | 14.5 | 25.7 | 0.00 | 0.00 | 0.00 | 65 | |
| 20260505205824 | 28 | 187 | 9.7 | 14.5 | 0.00 | 0.00 | 0.00 | 65 | |
| 20260505205322 | 28 | 153 | 9.7 | 20.9 | 0.00 | 0.00 | 0.00 | 66 | |
| 20260505204818 | 28 | 184 | 14.5 | 17.7 | 0.00 | 0.00 | 0.00 | 65 | |
| 20260505204317 | 28 | 214 | 14.5 | 20.9 | 0.00 | 0.00 | 0.00 | 66 | |
| 20260505203814 | 28 | 158 | 4.8 | 22.5 | 0.00 | 0.00 | 0.00 | 65 | |
| 20260505203310 | 28 | 199 | 12.9 | 25.7 | 0.00 | 0.00 | 0.00 | 65 | |
| 20260505202806 | 28 | 105 | 6.4 | 17.7 | 0.00 | 0.00 | 0.00 | 67 | |
| 20260505202306 | 28 | 179 | 8.0 | 22.5 | 0.00 | 0.00 | 0.00 | 66 | |
| 20260505201759 | 28 | 205 | 4.8 | 16.1 | 0.00 | 0.00 | 0.00 | 69 | |
| 20260505201257 | 28 | 207 | 12.9 | 17.7 | 0.00 | 0.00 | 0.00 | 68 | |
| 20260505200755 | 28 | 199 | 9.7 | 14.5 | 0.00 | 0.00 | 0.00 | 68 | |
| 20260505200252 | 28 | 168 | 12.9 | 17.7 | 0.00 | 0.00 | 0.00 | 67 | |
| 20260505195747 | 28 | 228 | 9.7 | 20.9 | 0.00 | 0.00 | 0.00 | 66 | |
| 20260505195245 | 28 | 181 | 11.3 | 17.7 | 0.00 | 0.00 | 0.00 | 67 | |
| 20260505194742 | 28 | 127 | 11.3 | 17.7 | 0.00 | 0.00 | 0.00 | 68 | |
| 20260505194238 | 27 | 147 | 4.8 | 16.1 | 0.00 | 0.00 | 0.00 | 68 | |
| 20260505193734 | 27 | 164 | 1.6 | 12.9 | 0.00 | 0.00 | 0.00 | 69 | |
| 20260505193232 | 27 | 195 | 14.5 | 17.7 | 0.00 | 0.00 | 0.00 | 68 | |
| 20260505192730 | 28 | 184 | 9.7 | 22.5 | 0.00 | 0.00 | 0.00 | 69 | |
| 20260505192227 | 27 | 211 | 6.4 | 22.5 | 0.00 | 0.00 | 0.00 | 69 | |
| 20260505191720 | 28 | 203 | 17.7 | 22.5 | 0.00 | 0.00 | 0.00 | 67 | |
| 20260505191218 | 27 | 209 | 6.4 | 14.5 | 0.00 | 0.00 | 0.00 | 70 | |
| 20260505190714 | 27 | 172 | 9.7 | 24.1 | 0.00 | 0.00 | 0.00 | 69 |